Погода Минеральные Воды

Погода Минеральные Воды : погода сейчас, прогноз погоды и архив. Всё, что Вы хотите узнать о погоде Минеральные Воды!

Поиск расширенной информации на нашем сайте:

Другие новости

Новости СМИ2

Главная страница сайта

Новости сайта

02.10.2013

Напоминаем, что на нашем новом сайте вы можете получить высокодетализированные прогнозы погоды по пунктам России, СНГ и мира (включающие важные для авиации метеовеличины, такие как направление и скорость ветра, видимость, явления погоды, количество и форма облачности, нижняя и верхняя граница облачности), а также ознакомиться с разнообразными материалами по авиационной метеорологии и подборкой полезных ссылок на эту тему.

Сайт Метеоцентр.Азия посвящён разработке технологий оптимизации авиаметеорологического обслуживания, включая проектирование и перспективное создание нескольких автоматизированных авиаметеорологических систем:
- система выпуска высокодетальных прогностических карт явлений погоды для нижнего воздушного пространства по России и ближнему зарубежью;
- система верификации прогнозов TAF (выпускаемых синоптиками официальных АМСГ РФ и ближнего зарубежья) и AUTOTAF (выпускаемых сайтом Метеоцентр.Азия) - выявление ошибок, онлайн-сопоставление с фактической погодой METAR, автоматическое внесение коррективов в прогнозы при резком отклонении фактической погоды от прогноза, подсчёт оправдываемости прогнозов по элементам и в целом;
- система обработки, анализа и отображения авиаметеорологической информации для применения провайдерами метеорологической информации.

Рекомендуем: звонки на мобильный через скайп

Погода Минеральные Воды - сегодня

Время (UTC), дата Ветер
(°,м/с) 
Видим.   Явления Облачность Т
(°С)
Тd
(°С)
f(%) Тe
(°С)
Pmin
(гПа)
dP
(гПа)
Po
(мм)
O2
(г/м3)
Тmin Tmax R s Состояние
почвы
00 21.01.17 250 (З) 6{10}  4000 м  дымка  ясно 
-2.3 -4.5 85 -6  1026.6  -0.3  740  301           
03 21.01.17 270 (З) 2{10}  4000 м  дымка  10/10 300 м 
[Sc]
-3.2 -5.1 87 -4  1026.3  -0.4  740  302  -6.8      сухой снег
50-90% 
06 21.01.17 240 (ЮЗ) 8-11{13}  10 км    4/4 600 м средняя 
[Sc|Ac cast]
-1.8 -5.1 78 -6  1026.4  0.2  740  301           
09 21.01.17 240 (ЮЗ) 6-11{12}  20000 м    8/6 1000 м средняя 
[Sc|Ac cast]
-0.2 -4.8 71 -4  1025.3  -0.9  739  299           
12 21.01.17 250 (З) 4{11}  20000 м    10/8 1000 м средняя 
[Sc|Ac cast]
-0.1 -5.5 67 -3  1024.2  -1  739  298           
15 21.01.17 220 (ЮЗ) 10 км    10/10 1000 м 
[Sc]
-0.6 -5.5 69 -4  1023.7  -0.5  738  299    +0.6       
18 21.01.17 220 (ЮЗ) 10 км    10/10 1000 м 
[Sc]
+0.6 -4.5 69 -2  1022.3  -1.2  737  297           
21 21.01.17 230 (ЮЗ) 10 км    10/10 1000 м 
[Sc]
+0.3 -4.4 71 -3  1021.5  -0.8  737  297           
00 22.01.17 240 (ЮЗ) 10 км    10/10 1000 м 
[Sc]
+0.7 -4.3 69 -2  1020.8  -0.7  736  296           
03 22.01.17 260 (З) 7-11{13}  10 км    10/10 600 м 
[Sc]
-0.2 -3 81 -4  1022.8  1.8  737  298  -0.6      сухой снег
10-40% 
06 22.01.17 250 (З) 6-11{13}  4000 м  слаб. снег  10/10 600 м 
[Ns]
-1.1 -4 81 -5  1027.1  3.9  740  300  -7.7         
09 22.01.17 240 (ЮЗ) 6-10{11}  1000 м  ливневой снег  10/10 300 м кучево-дожд. 
[Cb cap]
-0.9 -1.8 94 -5  1029.1  742  300           
12 22.01.17 250 (З) 3{10}  4000 м  слаб. ливневой снег  10/10 300 м кучево-дожд. 
[Cb cap]
+0.3 -1.3 89 -1  1029.5  0.6  742  299           
15 22.01.17 270 (З) 10 км  {ливн. осадки}  10/10 600 м 
[Sc]
-1.5 -3.3 88 -1  1030.8  743  301    +0.3     
18 22.01.17 250 (З) 10 км  {ливн. осадки}  10/10 1000 м 
[Sc]
-1.6 -3.8 85 -3  1031.5  0.7  744  302           
21 22.01.17 250 (З) 10 км    10/10 1000 м 
[Sc]
-2 -4.4 84 -3  1031.8  0.2  744  302           
00 23.01.17 250 (З) 5-10{10}  10 км    10/10 600 м 
[Sc]
-2.6 -4.8 85 -6  1031.8  -0.2  744  303           
03 23.01.17 250 (З) 6-11{14}  10 км    ясно 
-2 -5.8 75 -6  1031.3  -0.2  743  302  -2.6      11  равномерный
сухой снег
100% 
06 23.01.17 240 (ЮЗ) 6-10{12}  20000 м    4/0 средняя 
[Ac trans]
-2.4 -6.8 72 -6  1033.1  1.6  745  303  -2.8         
09 23.01.17 240 (ЮЗ) 6-13{14}  20000 м    3/0 средняя 
[Ac trans]
+0.1 -6.7 60 -3  1032.5  -0.2  745  301           
12 23.01.17 250 (З) 5-10{14}  20000 м    4/0 средняя 
[Ac trans]
+2.6 -5.1 57 1031.1  -1  744  297           
15 23.01.17 260 (З) 2{10}  10 км    ясно 
-1.9 -5.9 74 -3  1032.3  0.5  744  303    +2.9       
18 23.01.17 250 (З) 10 км    ясно 
-3.4 -6.8 77 -5  1032.3  -0.2  744  304           
21 23.01.17 300 (СЗ) 10 км    ясно 
-4.6 -8.4 75 -4  1031.5  -0.2  743  305           
00 24.01.17 250 (З) 10 км    ясно 
-6.5 -9.7 78 -8  1031.1  -0.5  743  308           
Время (UTC), дата Ветер
(°,м/с) 
Видим.   Явления Облачность Т
(°С)
Тd
(°С)
f(%) Тe
(°С)
Pmin
(гПа)
dP
(гПа)
Po
(мм)
O2
(г/м3)
Тmin Tmax R s Состояние
почвы

Для получения пояснительной информации подведите курсор к названию столбца.

ПОГОДА Минеральные Воды - архив

Всё, что Вы хотите узнать о погоде Минеральные Воды - удобно и подробно!

Выберите нужную дату (начиная с 1 января 2015* года) и нажмите кнопку "Найти".
Будут отображены архивные сводки погоды по пункту Минеральные Воды, начиная с указанной даты.


Отображать данные в формате CSV (для использования в таблицах Excel)


Внимание! Наш архив погоды предназначен исключительно для личного некоммерческого использования в познавательных целях. Если Вам необходимы официальные справки о состоянии погоды (для производственных, юридических, коммерческих и т.п. целей), обращайтесь в органы Росгидромета.

*Примечание: данная дата относится к архиву по метеостанциям СССР (Россия, СНГ, Балтия).
Архив по метеостанциям Зарубежной Европы и Азии (кроме Китая) хранится 10 дней, по другим регионам земного шара (Китай, Африка, Америка, Австралия, Океания) - 1 день.

Минеральные Воды - район местоположения метеостанции


Название, широта, долгота, высота метеостанции:
Минеральные Воды 44.2°ш. 43.1°д. 316 м над ур. моря [Российская Федерация]

Дополнительная информация

В oтличие oт бoльшинства пoгoдных сайтoв мы публикуем пoдрoбную метеoинфoрмацию в детальнoм прoфессиoнальнoм фoрмате.

Характеристики температуры и влажнoсти вoздуха измеряются на высoте 2 м в тени вдали oт зданий и деревьев.
Скoрoсть ветра измеряется на высoте 10 м (на урoвне рoста челoвека скoрoсть ветра ниже в 1.5-2 раза). Если метеoстанция нахoдится в гoрoде или в лесу, тo скoрoсть ветра занижена на 2-4 м/с пo сравнению с oткрытым местoм. Скoрoсть ветра над акватoриями крупных рек и oзёр, а также на вершинах хoлмoв на 2-5 м/с выше, чем в oбычных услoвиях.
Атмoсфернoе давление в разных тoчках местнoсти мoжет значительнo oтличаться oт давления на метеoстанции, в зависимoсти oт услoвий рельефа (при пoдъёме на 10 м давление пoнижается примернo на 1 мм рт.ст.).